• In Russia
  • List of Countries
  • For 7 days
  • Water Temperature
  • Satellite Maps
  • Weather Map
  • Weather Widgets
  • user-avatar
    Login

    Hourly Weather Shaki

    Today, 6 December, Tuesday

    Time Temperature Precipitation Wind Pressure Humidity
    00:00 +2°C° 0.3 mm 3 mps 741 mmHg 75%
    01:00 +1°C° 0.2 mm 3 mps 741 mmHg 72%
    02:00 0°C° 0.2 mm 4 mps 742 mmHg 69%
    03:00 0°C° 0 mm 4 mps 742 mmHg 68%
    04:00 0°C° 0.1 mm 4 mps 742 mmHg 64%
    05:00 0°C° 0.1 mm 4 mps 742 mmHg 61%
    06:00 0°C° 0.1 mm 4 mps 742 mmHg 57%
    07:00 0°C° 0 mm 4 mps 743 mmHg 55%
    08:00 0°C° 0 mm 4 mps 743 mmHg 52%
    09:00 +1°C° 0 mm 4 mps 743 mmHg 48%
    10:00 +1°C° 0 mm 4 mps 743 mmHg 47%
    11:00 +3°C° 0 mm 4 mps 743 mmHg 46%
    12:00 +3°C° 0 mm 4 mps 743 mmHg 44%
    13:00 +3°C° 0 mm 4 mps 743 mmHg 45%
    14:00 +3°C° 0 mm 3 mps 743 mmHg 45%
    15:00 +2°C° 0 mm 3 mps 743 mmHg 45%
    16:00 +1°C° 0 mm 2 mps 743 mmHg 49%
    17:00 -2°C° 0 mm 2 mps 743 mmHg 53%
    18:00 -1°C° 0 mm 1 mps 743 mmHg 57%
    19:00 -1°C° 0 mm 1 mps 743 mmHg 55%
    20:00 -2°C° 0 mm 1 mps 743 mmHg 53%
    21:00 -2°C° 0 mm 1 mps 743 mmHg 51%
    22:00 -1°C° 0 mm 1 mps 742 mmHg 49%
    23:00 -3°C° 0 mm 2 mps 742 mmHg 47%

    Tomorrow, 7 December, Wednesday

    Time Temperature Precipitation Wind Pressure Humidity
    00:00 -3°C° 0 mm 2 mps 742 mmHg 46%
    01:00 -3°C° 0 mm 2 mps 742 mmHg 45%
    02:00 -3°C° 0 mm 2 mps 741 mmHg 44%
    03:00 -3°C° 0 mm 2 mps 741 mmHg 44%
    04:00 -2°C° 0 mm 3 mps 741 mmHg 43%
    05:00 -2°C° 0 mm 3 mps 740 mmHg 42%
    06:00 -2°C° 0 mm 3 mps 740 mmHg 41%
    07:00 -1°C° 0 mm 3 mps 740 mmHg 40%
    08:00 +1°C° 0 mm 3 mps 739 mmHg 38%
    09:00 +2°C° 0 mm 3 mps 739 mmHg 36%
    10:00 +3°C° 0 mm 4 mps 738 mmHg 34%
    11:00 +5°C° 0 mm 4 mps 738 mmHg 32%
    12:00 +6°C° 0 mm 5 mps 737 mmHg 31%
    13:00 +6°C° 0 mm 5 mps 737 mmHg 32%
    14:00 +5°C° 0 mm 4 mps 736 mmHg 34%
    15:00 +5°C° 0 mm 4 mps 736 mmHg 36%
    16:00 +3°C° 0 mm 4 mps 737 mmHg 37%
    17:00 +1°C° 0 mm 4 mps 737 mmHg 38%
    18:00 0°C° 0 mm 4 mps 738 mmHg 38%
    19:00 0°C° 0 mm 4 mps 738 mmHg 38%
    20:00 -1°C° 0 mm 4 mps 739 mmHg 38%
    21:00 -1°C° 0 mm 4 mps 739 mmHg 37%
    22:00 -1°C° 0 mm 4 mps 739 mmHg 40%
    23:00 -1°C° 0 mm 4 mps 739 mmHg 43%

    Day after tomorrow, 8 December, Thursday

    Time Temperature Precipitation Wind Pressure Humidity
    00:00 -1°C° 0 mm 4 mps 740 mmHg 46%
    01:00 -1°C° 0 mm 4 mps 740 mmHg 48%
    02:00 -1°C° 0 mm 4 mps 741 mmHg 49%
    03:00 -1°C° 0 mm 4 mps 741 mmHg 51%
    04:00 -2°C° 0 mm 4 mps 742 mmHg 51%
    05:00 -2°C° 0 mm 4 mps 743 mmHg 50%
    06:00 -2°C° 0 mm 4 mps 743 mmHg 49%
    07:00 -2°C° 0 mm 4 mps 744 mmHg 47%
    08:00 -1°C° 0 mm 4 mps 745 mmHg 45%
    09:00 -1°C° 0 mm 4 mps 746 mmHg 42%
    10:00 0°C° 0 mm 4 mps 746 mmHg 41%
    11:00 0°C° 0 mm 4 mps 746 mmHg 39%
    12:00 +1°C° 0 mm 4 mps 745 mmHg 38%
    13:00 0°C° 0 mm 4 mps 745 mmHg 39%
    14:00 0°C° 0 mm 4 mps 745 mmHg 40%
    15:00 +1°C° 0 mm 3 mps 745 mmHg 41%
    16:00 -1°C° 0 mm 3 mps 745 mmHg 46%
    17:00 -2°C° 0 mm 2 mps 746 mmHg 51%
    18:00 -4°C° 0 mm 2 mps 746 mmHg 56%
    19:00 -4°C° 0 mm 2 mps 746 mmHg 58%
    20:00 -2°C° 0 mm 1 mps 746 mmHg 61%
    21:00 -3°C° 0 mm 1 mps 746 mmHg 63%
    22:00 -3°C° 0 mm 1 mps 746 mmHg 66%
    23:00 -3°C° 0 mm 1 mps 746 mmHg 69%

    9 December, Friday

    Time Temperature Precipitation Wind Pressure Humidity
    00:00 -4°C° 0 mm 1 mps 745 mmHg 72%
    01:00 -4°C° 0 mm 1 mps 745 mmHg 70%
    02:00 -4°C° 0 mm 1 mps 745 mmHg 69%
    03:00 -4°C° 0 mm 1 mps 744 mmHg 67%
    04:00 -4°C° 0 mm 1 mps 744 mmHg 65%
    05:00 -4°C° 0 mm 1 mps 744 mmHg 63%
    06:00 -6°C° 0 mm 2 mps 743 mmHg 61%
    07:00 -4°C° 0 mm 2 mps 743 mmHg 56%
    08:00 -3°C° 0 mm 2 mps 743 mmHg 51%
    09:00 -1°C° 0 mm 2 mps 743 mmHg 45%
    10:00 +1°C° 0 mm 2 mps 742 mmHg 43%
    11:00 +1°C° 0 mm 3 mps 741 mmHg 40%
    12:00 +2°C° 0 mm 3 mps 740 mmHg 37%
    13:00 +2°C° 0 mm 3 mps 740 mmHg 37%
    14:00 +2°C° 0 mm 3 mps 739 mmHg 38%
    15:00 +2°C° 0 mm 3 mps 739 mmHg 38%
    16:00 0°C° 0 mm 3 mps 739 mmHg 40%
    17:00 -1°C° 0 mm 3 mps 739 mmHg 43%
    18:00 -3°C° 0 mm 2 mps 738 mmHg 45%
    19:00 -3°C° 0 mm 2 mps 738 mmHg 46%
    20:00 -3°C° 0 mm 2 mps 738 mmHg 46%
    21:00 -3°C° 0 mm 2 mps 738 mmHg 46%
    22:00 -3°C° 0 mm 2 mps 737 mmHg 46%
    23:00 -2°C° 0 mm 2 mps 737 mmHg 46%

    10 December, Saturday

    Time Temperature Precipitation Wind Pressure Humidity
    00:00 -2°C° 0 mm 2 mps 736 mmHg 46%
    01:00 -2°C° 0 mm 2 mps 736 mmHg 47%
    02:00 -2°C° 0 mm 2 mps 735 mmHg 48%
    03:00 -2°C° 0 mm 3 mps 735 mmHg 50%
    04:00 -2°C° 0 mm 2 mps 734 mmHg 51%
    05:00 -2°C° 0 mm 2 mps 734 mmHg 53%
    06:00 -2°C° 0 mm 2 mps 734 mmHg 54%
    07:00 +1°C° 0 mm 2 mps 733 mmHg 51%
    08:00 +2°C° 0 mm 2 mps 733 mmHg 48%
    09:00 +4°C° 0 mm 2 mps 733 mmHg 45%
    10:00 +4°C° 0 mm 3 mps 733 mmHg 44%
    11:00 +5°C° 0 mm 4 mps 732 mmHg 44%
    12:00 +7°C° 0 mm 4 mps 732 mmHg 43%
    13:00 +6°C° 0 mm 4 mps 732 mmHg 44%
    14:00 +6°C° 0 mm 4 mps 732 mmHg 46%
    15:00 +6°C° 0 mm 4 mps 732 mmHg 48%
    16:00 +4°C° 0 mm 4 mps 733 mmHg 53%
    17:00 +2°C° 0 mm 3 mps 733 mmHg 57%
    18:00 +1°C° 0 mm 3 mps 734 mmHg 62%
    19:00 +1°C° 0 mm 3 mps 734 mmHg 64%
    20:00 +1°C° 0 mm 3 mps 734 mmHg 66%
    21:00 +1°C° 0 mm 3 mps 734 mmHg 67%
    22:00 +1°C° 0 mm 2 mps 734 mmHg 70%
    23:00 -1°C° 0 mm 2 mps 735 mmHg 73%

    11 December, Sunday

    Time Temperature Precipitation Wind Pressure Humidity
    00:00 -1°C° 0 mm 2 mps 735 mmHg 76%
    01:00 +1°C° 0 mm 1 mps 735 mmHg 77%
    02:00 0°C° 0 mm 1 mps 735 mmHg 78%
    03:00 0°C° 0 mm 1 mps 735 mmHg 80%
    04:00 0°C° 0 mm 1 mps 735 mmHg 80%
    05:00 0°C° 0 mm 1 mps 735 mmHg 81%
    06:00 0°C° 0 mm 1 mps 735 mmHg 81%
    07:00 +2°C° 0 mm 1 mps 735 mmHg 74%
    08:00 +4°C° 0 mm 1 mps 735 mmHg 66%
    09:00 +5°C° 0 mm 1 mps 735 mmHg 58%
    10:00 +6°C° 0 mm 2 mps 734 mmHg 56%
    11:00 +7°C° 0 mm 3 mps 733 mmHg 54%
    12:00 +7°C° 0 mm 5 mps 733 mmHg 52%
    13:00 +7°C° 0 mm 4 mps 732 mmHg 53%
    14:00 +7°C° 0 mm 4 mps 732 mmHg 55%
    15:00 +7°C° 0 mm 4 mps 731 mmHg 56%
    16:00 +5°C° 0 mm 4 mps 732 mmHg 60%
    17:00 +4°C° 0 mm 3 mps 732 mmHg 64%
    18:00 +3°C° 0 mm 3 mps 732 mmHg 68%
    19:00 +3°C° 0 mm 3 mps 733 mmHg 70%
    20:00 +2°C° 0 mm 3 mps 733 mmHg 71%
    21:00 +2°C° 0 mm 3 mps 733 mmHg 72%
    22:00 +2°C° 0 mm 3 mps 733 mmHg 72%
    23:00 +2°C° 0 mm 2 mps 733 mmHg 72%
    Show more